This demonstration page uses our WeatherBlox Daily Observations layout. Learn more.

Left ArrowRight Arrow

Hourly Observations for August 23, 2021

Temp ( °F °C ) Dew Point ( °F °C ) Humidity (%) Winds ( mph kmh ) Pressure ( in mb ) Visibility ( mi km ) Precip ( " mm )
12:51 am 00:51 Clear 80 26.7 62 16.7 54 54 E 7 11 29.72 1007 10 16 0.00 0.00
1:51 am 01:51 Clear 79 26.1 62 16.7 56 56 SSW 6 9 29.72 1007 10 16 0.00 0.00
5:51 am 05:51 Sunny 74 23.3 62 16.7 67 67 Calm 29.79 1009 10 16 0.00 0.00
6:51 am 06:51 Sunny 80 26.7 62 16.7 54 54 ESE 8 13 29.81 1009 10 16 0.00 0.00
7:51 am 07:51 Sunny 84 28.9 62 16.7 48 48 ESE 9 15 29.82 1010 10 16 0.00 0.00
8:51 am 08:51 Mostly Sunny 88 31.1 62 16.7 42 42 E 8 13 29.83 1010 10 16 0.00 0.00
9:51 am 09:51 Sunny 90 32.2 62 16.7 39 39 E 7 11 29.82 1010 10 16 0.00 0.00
10:51 am 10:51 Sunny 94 34.4 65 18.3 38 38 Calm 29.81 1010 10 16 0.00 0.00
11:51 am 11:51 Sunny 93 33.9 63 17.2 37 37 Calm 29.80 1009 10 16 0.00 0.00
12:51 pm 12:51 Sunny 98 36.7 58 14.4 26 26 NNW 8 13 29.76 1008 10 16 0.00 0.00
1:51 pm 13:51 Sunny 98 36.7 58 14.4 26 26 WNW 9 15 29.75 1007 10 16 0.00 0.00
2:51 pm 14:51 Sunny 100 37.8 60 15.6 27 27 WNW 15 24 29.72 1006 10 16 0.00 0.00
3:51 pm 15:51 Sunny 98 36.7 61 16.1 29 29 WNW 15 24 29.72 1007 10 16 0.00 0.00
4:54 pm 16:54 Mostly Cloudy with Thunderstorms 78 25.6 66 18.9 67 67 SSE 30 48 29.78 1008 7 11 0.00 0.00
5:08 pm 17:08 Cloudy with Nearby Thunderstorms 77 25 64 17.8 64 64 SSE 21 33 29.78 1009 10 16 0.00 0.00
5:51 pm 17:51 Mostly Cloudy with Nearby Thunderstorms 77 25 65 18.3 66 66 VRB 5 7 29.84 1011 10 16 0.03 0.76
6:37 pm 18:37 Mostly Cloudy with Nearby Thunderstorms 81 27.2 64 17.8 57 57 ENE 9 15 29.78 1008 10 16 0.00 0.00
6:51 pm 18:51 Partly Cloudy 82 27.8 64 17.8 55 55 E 12 19 29.82 1010 10 16 0.00 0.00
7:51 pm 19:51 Partly Cloudy 78 25.6 64 17.8 62 62 SSW 9 15 29.83 1010 10 16 0.00 0.00
8:51 pm 20:51 Clear 77 25 66 18.9 69 69 S 7 11 29.84 1011 10 16 0.00 0.00
10:51 pm 22:51 Clear 77 25 65 18.3 66 66 E 8 13 29.85 1011 10 16 0.00 0.00
11:51 pm 23:51 Clear 77 25 64 17.8 64 64 E 10 17 29.86 1011 10 16 0.00 0.00

Powered by AerisWeather